Tracking 20376 objects as of 20-Feb-2020
HD Live streaming from Space Station
objects crossing your sky now
Track the group of recently launched Starlink satellites

DELTA 1 DEB

Track DELTA 1 DEB now!
10-day predictions


NORAD ID: 12825
Int'l Code: 1978-026EW
Perigee: 878.5 km
Apogee: 966.2 km
Inclination: 99.4 °
Period: 103.3 minutes
Semi major axis: 7293 km
RCS: 0.046 m2 (small)
Launch date: March 5, 1978
Source: United States (US)
Launch site: AIR FORCE WESTERN TEST RANGE (AFWTR)

Note: This is SATELLITE DEBRIS
aabbcc
Your satellite tracking list
Your tracking list is empty




NASA's NSSDC Master Catalog

Two Line Element Set (TLE):
1 12825U 78026EW  20050.67940123 -.00000052 +00000-0 -41178-5 0  9995
2 12825 099.4047 201.5900 0060164 252.2275 119.1273 13.93838808983120
Source of the keplerian elements: AFSPC